Pila Airport

Jump to: basic info | weather | runways | comments

Related pages: nearby airports | nearby navaids | notams | map

Basic information (top)

Codes: EPPI
Location: lon 53.169998, lat 16.712500, elev 259 ft / 79 m msl
Status: small_airport

Weather (top)

Current conditions for Poznań-Ławica Airport 45nm (84km) S (rec'd 2014/11/01 04:00Z):

EPPO 010400Z 13005KT 8000 BKN020 08/06 Q1022

Airport forecast for Poznań-Ławica Airport 45nm (84km) S (rec'd 2014/10/31 00:33Z):

TAF EPPO 312330Z 0100/0124 13004KT 3000 BR BKN020 PROB40 0100/0106 0800 FG 
      BECMG 0108/0110 8000 NSW 
      BECMG 0113/0116 5000 BR BKN015

Runways (top)

03/21: 7,876 x 195 ft (2,401 x 59 m) — other (PEM) — lighted

Latest comments (top)

No comments yet for Pila Airport

More... (top)

See also NOTAMs and nearby airports and navaids, or visit the Pila Airport page at the main OurAirports website..